This is the latest recevied weather packets stored in our database for station/object TA2EE-10. If no packets are shown the sender has not sent any weather packets the latest 10 day(s).
| Time | Temp. | Humidity | Pressure | Rain* | Wind** | Luminosity | Snow |
|---|---|---|---|---|---|---|---|
| 1777592391 | 26.67° C | 33% | 910 hPa | - | - | 0 W/m² | - |
| 1777590266 | 27.22° C | 35% | 911 hPa | - | - | 0 W/m² | - |
| 1777588144 | 23.89° C | 28% | 911 hPa | - | - | 0 W/m² | - |
| 1777586022 | 26.11° C | 25% | 911 hPa | - | - | 0 W/m² | - |
| 1777583900 | 22.78° C | 29% | 911 hPa | - | - | 0 W/m² | - |
| 1777581778 | 25° C | 26% | 911 hPa | - | - | 0 W/m² | - |
| 1777579652 | 25.56° C | 25% | 911 hPa | - | - | 0 W/m² | - |
| 1777577530 | 26.11° C | 25% | 912 hPa | - | - | 0 W/m² | - |
| 1777575407 | 26.67° C | 24% | 911 hPa | - | - | 0 W/m² | - |
| 1777573285 | 27.22° C | 23% | 912 hPa | - | - | 0 W/m² | - |
| 1777571162 | 27.22° C | 22% | 911 hPa | - | - | 0 W/m² | - |
| 1777569039 | 27.22° C | 20% | 911 hPa | - | - | 0 W/m² | - |
| 1777566917 | 27.78° C | 19% | 911 hPa | - | - | 0 W/m² | - |
| 1777564794 | 27.22° C | 19% | 911 hPa | - | - | 0 W/m² | - |
| 1777562672 | 27.78° C | 18% | 911 hPa | - | - | 0 W/m² | - |
| 1777560550 | 28.33° C | 17% | 911 hPa | - | - | 0 W/m² | - |
| 1777558426 | 28.89° C | 18% | 912 hPa | - | - | 0 W/m² | - |
| 1777556303 | 28.89° C | 16% | 912 hPa | - | - | 0 W/m² | - |
| 1777555505 | 28.89° C | 16% | 912 hPa | - | - | 0 W/m² | - |
| 1777553383 | 29.44° C | 16% | 912 hPa | - | - | 0 W/m² | - |
| 1777553314 | 29.44° C | 17% | 912 hPa | - | - | 0 W/m² | - |
| 1777551191 | 30.56° C | 16% | 913 hPa | - | - | 0 W/m² | - |
| 1777549068 | 31.11° C | 15% | 913 hPa | - | - | 0 W/m² | - |
| 1777546945 | 32.22° C | 16% | 913 hPa | - | - | 0 W/m² | - |
| 1777544823 | 32.22° C | 16% | 914 hPa | - | - | 0 W/m² | - |
* Rain since midnight (hover to see other rain measurements)
** Current wind speed in m/s (hover to see current wind gust speed)